Overview Statistics Trail Chart Weather Telemetry Raw packets
 

This is the latest recevied weather packets stored in our database for station/object N0QWM. If no packets are shown the sender has not sent any weather packets the latest 10 day(s).

<< 103 104 105 106 107 108 109 >>
Time Temp. Humidity Pressure Rain* Wind** Luminosity Snow
1787874877 27.22° C 85% 1019 hPa 0 mm - 3 W/m² -
1787874572 27.22° C 84% 1018.9 hPa 0 mm - 4 W/m² -
1787874266 27.22° C 84% 1019 hPa 0 mm - 6 W/m² -
1787873961 27.22° C 83% 1019.2 hPa 0 mm - 8 W/m² -
1787873661 27.22° C 84% 1019.3 hPa 0 mm - 10 W/m² -
1787873355 27.22° C 84% 1019.3 hPa 0 mm - 10 W/m² -
1787873055 27.78° C 85% 1019.2 hPa 0 mm - 9 W/m² -
1787872750 27.78° C 84% 1019.3 hPa 0 mm - 15 W/m² -
1787872446 27.78° C 84% 1019.3 hPa 0 mm - 20 W/m² -
1787872140 27.78° C 84% 1019.4 hPa 0 mm - 20 W/m² -
1787871839 27.78° C 84% 1019.4 hPa 0 mm - 21 W/m² -
1787871534 27.78° C 84% 1019.1 hPa 0 mm - 23 W/m² -
1787871230 27.78° C 84% 1019.2 hPa 0 mm - 22 W/m² -
1787870925 27.78° C 84% 1019.1 hPa 0 mm - 25 W/m² -
1787870619 27.78° C 84% 1019.1 hPa 0 mm - 29 W/m² -
1787870314 28.33° C 84% 1019.2 hPa 0 mm - 33 W/m² -
1787870010 28.33° C 83% 1019.1 hPa 0 mm - 37 W/m² -
1787869709 28.33° C 83% 1018.8 hPa 0 mm - 43 W/m² -
1787869408 28.33° C 83% 1019 hPa 0 mm - 48 W/m² -
1787869103 28.33° C 83% 1018.8 hPa 0 mm - 49 W/m² -
1787868801 28.33° C 83% 1018.9 hPa 0 mm - 52 W/m² -
1787868501 28.33° C 81% 1018.8 hPa 0 mm - 58 W/m² -
1787868200 28.33° C 81% 1019 hPa 0 mm - 63 W/m² -
1787867895 28.33° C 82% 1019 hPa 0 mm - 65 W/m² -
1787867591 28.89° C 81% 1019.2 hPa 0 mm - 65 W/m² -

* Rain latest hour (hover to see other rain measurements)
** Current wind speed in m/s (hover to see current wind gust speed)